Location: Holyhead Bay
(53.3667°N, 4.6667°W)
Time: 23:14:44
(UTC+00:00)

Cosmos 1408 Rocket - Pass Details

Date: 14 April 2021
Orbit: 601 x 631 km, 82.6° (Epoch: 16 May)

Event Time Altitude Azimuth Distance (km) Brightness Sun altitude
Rises 20:53:44 0° 2° (N) 2,867 7.5 -13.4°
Reaches altitude 10° 20:57:43 10° 39° (NE) 1,957 6.1 -13.9°
Maximum altitude 20:58:57 11° 56° (NE) 1,887 5.9 -14.0°
Drops below altitude 10° 21:00:10 10° 72° (ENE) 1,954 5.8 -14.2°
Enters shadow 21:00:32 - 77° (ENE) 1,998 5.8 -14.2°
